Weather History for Swansboro, NC

Change the Weather History Date:

Thursday, February 7, 2013

  Actual Average (KNKT) Record (KNKT)
Temperature  
Mean Temperature 54 °F -  
Max Temperature 61 °F 54 °F 68 °F (1999)
Min Temperature 46 °F 34 °F 27 °F (2009)
Degree Days  
Heating Degree Days 12    
Growing Degree Days 4 (Base 50)    
Moisture  
Dew Point 48 °F    
Average Humidity 85    
Maximum Humidity 94    
Minimum Humidity 60    
Precipitation  
Precipitation 1.80 in - - ()
Sea Level Pressure  
Sea Level Pressure 30.13 in    
Wind  
Wind Speed 12 mph (NE)    
Max Wind Speed 24 mph    
Max Gust Speed 37 mph    
Visibility 6 miles    
Events Rain    
Averages and records for this station are not official NWS values.
T = Trace of Precipitation, MM = Missing Value Source: NWS Daily Summary

Daily Weather History Graph

Daily Weather History Graph

Search for Another Location

Airport:

Trip Planner

Search our weather history database for the weather conditions in past years. The results will help you decide how hot, cold, wet, or windy it might be!

Date:

Astronomy

Feb. 07, 2013 Rise Set
Actual Time 7:01 AM EST 5:43 PM EST
Civil Twilight 6:35 AM EST 6:09 PM EST
Nautical Twilight 6:05 AM EST 6:39 PM EST
Astronomical Twilight 5:35 AM EST 7:09 PM EST
Moon 4:35 AM EST (2/7) 3:09 PM EST (2/7)
Length of Visible Light 11h 34m
Length of Day
10h 42m
Waning Crescent, 9% of the Moon is Illuminated
Feb 7
Waning Crescent
Feb 10
New
Feb 17
First Quarter
Feb 25
Full
Mar 4
Last Quarter

Hourly Weather History & Observations

Time (EST) Temp. Windchill Dew Point Humidity Pressure Visibility Wind Dir Wind Speed Gust Speed Precip Events Conditions
12:57 AM 46.0 °F 41.9 °F 41.0 °F 83% 30.30 in 10.0 mi NE 8.1 mph - N/A   Clear
1:57 AM 46.0 °F 41.4 °F 41.0 °F 83% 30.26 in 10.0 mi NE 9.2 mph - N/A   Clear
2:57 AM 46.0 °F 42.5 °F 42.1 °F 86% 30.26 in 10.0 mi NNE 6.9 mph - N/A   Clear
3:57 AM 46.0 °F 41.9 °F 42.1 °F 86% 30.26 in 10.0 mi NE 8.1 mph - N/A   Clear
4:57 AM 46.0 °F 41.0 °F 42.1 °F 86% 30.27 in 10.0 mi NE 10.4 mph - N/A   Clear
5:57 AM 46.9 °F - 41.0 °F 80% 30.27 in 10.0 mi NE 10.4 mph - N/A   Clear
6:57 AM 46.9 °F - 41.0 °F 80% 30.27 in 10.0 mi NNE 9.2 mph 17.3 mph N/A   Clear
7:57 AM 48.0 °F - 43.0 °F 83% 30.28 in 9.0 mi NE 12.7 mph 18.4 mph N/A   Mostly Cloudy
8:57 AM 52.0 °F - 44.1 °F 74% 30.27 in 10.0 mi NE 10.4 mph 18.4 mph N/A   Overcast
9:57 AM 54.0 °F - 44.1 °F 69% 30.29 in 10.0 mi NE 10.4 mph 20.7 mph N/A   Overcast
10:57 AM 57.9 °F - 46.0 °F 65% 30.27 in 10.0 mi NE 13.8 mph 24.2 mph N/A   Overcast
11:57 AM 61.0 °F - 46.9 °F 60% 30.25 in 10.0 mi NE 13.8 mph - N/A   Overcast
12:57 PM 61.0 °F - 46.9 °F 60% 30.21 in 10.0 mi ENE 15.0 mph 21.9 mph N/A   Overcast
1:57 PM 59.0 °F - 46.9 °F 64% 30.19 in 10.0 mi NE 12.7 mph - N/A   Overcast
2:57 PM 52.0 °F - 48.9 °F 89% 30.17 in 3.0 mi NNE 10.4 mph - 0.06 in Rain Rain
3:04 PM 51.8 °F - 48.2 °F 88% 30.15 in 2.5 mi NE 11.5 mph - 0.02 in Rain Rain
3:14 PM 51.8 °F - 48.2 °F 88% 30.15 in 4.0 mi NE 11.5 mph - 0.02 in Rain Light Rain
3:57 PM 53.1 °F - 50.0 °F 89% 30.15 in 3.0 mi NE 10.4 mph - 0.04 in Rain Light Rain
4:34 PM 51.8 °F - 50.0 °F 94% 30.12 in 2.5 mi NE 11.5 mph 18.4 mph N/A Rain Rain
4:47 PM 51.8 °F - 50.0 °F 94% 30.12 in 2.5 mi NE 11.5 mph - N/A Rain Rain
4:57 PM 52.0 °F - 50.0 °F 93% 30.13 in 2.0 mi NE 9.2 mph - N/A Rain Rain
5:57 PM 52.0 °F - 50.0 °F 93% 30.12 in 3.0 mi NE 11.5 mph - 0.11 in Rain Rain
6:57 PM 52.0 °F - 50.0 °F 93% 30.09 in 4.0 mi NE 11.5 mph 24.2 mph 0.10 in Rain Rain
7:57 PM 54.0 °F - 51.1 °F 90% 30.05 in 3.0 mi NE 17.3 mph 27.6 mph 0.20 in Rain Heavy Rain
8:36 PM 53.6 °F - 51.8 °F 94% 30.01 in 4.0 mi ENE 20.7 mph 31.1 mph 0.18 in Rain Rain
8:57 PM 55.0 °F - 52.0 °F 89% 30.02 in 4.0 mi ENE 16.1 mph 27.6 mph 0.24 in Rain Rain
9:57 PM 54.0 °F - 52.0 °F 93% 29.96 in 2.5 mi NE 20.7 mph 36.8 mph 0.32 in Rain Heavy Rain
10:04 PM 55.4 °F - 51.8 °F 88% 29.95 in 2.5 mi ENE 23.0 mph 35.7 mph 0.05 in Rain Heavy Rain
10:27 PM 55.4 °F - 51.8 °F 88% 29.94 in 4.0 mi ENE 20.7 mph 27.6 mph 0.15 in Rain Rain
10:57 PM 55.0 °F - 53.1 °F 93% 29.94 in 2.5 mi ENE 18.4 mph 29.9 mph 0.30 in Rain Heavy Rain
11:42 PM 55.4 °F - 53.6 °F 94% 29.87 in 3.0 mi NE 15.0 mph 21.9 mph 0.25 in Rain Heavy Rain
11:50 PM 55.4 °F - 53.6 °F 94% 29.87 in 1.8 mi ENE 24.2 mph 32.2 mph 0.36 in Rain Heavy Rain
11:57 PM 55.0 °F - 53.1 °F 93% 29.86 in 1.8 mi NE 18.4 mph 32.2 mph 0.43 in Rain Heavy Rain